TimeEST,TemperatureF,Dew PointF,Humidity,Sea Level PressureIn,VisibilityMPH,Wind Direction,Wind SpeedMPH,Gust SpeedMPH,PrecipitationIn,Events,Conditions,WindDirDegrees,DateUTC
12:14 AM,32.9,27.7,81,30.12,7.0,SSW,3.5,-,N/A,,Clear,200,2012-11-09 05:14:00
12:34 AM,33.6,28.4,81,30.12,7.0,SSW,3.5,-,N/A,,Clear,210,2012-11-09 05:34:00
12:54 AM,33.8,28.4,81,30.13,7.0,Calm,Calm,-,N/A,,Clear,0,2012-11-09 05:54:00
1:14 AM,34.2,28.8,81,30.13,7.0,Calm,Calm,-,N/A,,Clear,0,2012-11-09 06:14:00
1:35 AM,34.7,29.1,80,30.13,5.0,Calm,Calm,-,N/A,,Haze,0,2012-11-09 06:35:00
1:54 AM,34.5,29.1,81,30.14,5.0,Calm,Calm,-,N/A,,Haze,0,2012-11-09 06:54:00
2:15 AM,34.0,29.7,84,30.14,5.0,Calm,Calm,-,N/A,,Haze,0,2012-11-09 07:15:00
2:35 AM,34.0,29.8,85,30.15,5.0,Calm,Calm,-,N/A,,Clear,0,2012-11-09 07:35:00
2:54 AM,33.8,29.7,85,30.15,5.0,Calm,Calm,-,N/A,,Haze,0,2012-11-09 07:54:00
3:15 AM,33.8,29.8,85,30.15,5.0,Calm,Calm,-,N/A,,Overcast,0,2012-11-09 08:15:00
3:35 AM,34.0,30.0,85,30.15,5.0,Calm,Calm,-,N/A,,Overcast,0,2012-11-09 08:35:00
3:54 AM,33.8,30.2,87,30.15,4.0,Calm,Calm,-,N/A,,Overcast,0,2012-11-09 08:54:00
4:15 AM,34.7,30.9,86,30.15,5.0,Calm,Calm,-,N/A,,Overcast,0,2012-11-09 09:15:00
4:34 AM,35.2,31.6,87,30.15,4.0,SW,3.5,-,N/A,,Overcast,220,2012-11-09 09:34:00
4:55 AM,35.6,32.0,87,30.15,4.0,SSW,3.5,-,N/A,,Overcast,210,2012-11-09 09:55:00
5:15 AM,36.0,32.0,86,30.15,4.0,SSW,4.6,-,N/A,,Overcast,200,2012-11-09 10:15:00
5:34 AM,36.5,32.0,84,30.15,4.0,SSW,5.8,-,N/A,,Overcast,210,2012-11-09 10:34:00
5:55 AM,36.1,31.8,84,30.16,4.0,SSW,5.8,-,N/A,,Overcast,210,2012-11-09 10:55:00
6:14 AM,36.5,32.0,84,30.15,4.0,SSW,4.6,-,N/A,,Overcast,210,2012-11-09 11:14:00
6:34 AM,36.5,32.0,84,30.16,4.0,SSW,4.6,-,N/A,,Haze,210,2012-11-09 11:34:00
6:55 AM,36.5,32.0,84,30.15,4.0,SSW,3.5,-,N/A,,Haze,210,2012-11-09 11:55:00
7:14 AM,36.9,32.0,83,30.15,4.0,SSW,5.8,-,N/A,,Haze,210,2012-11-09 12:14:00
7:34 AM,36.7,32.0,83,30.16,2.5,SSW,5.8,-,N/A,,Haze,200,2012-11-09 12:34:00
7:55 AM,37.4,32.4,82,30.17,2.5,SSW,5.8,-,N/A,,Haze,210,2012-11-09 12:55:00
8:14 AM,37.6,32.4,81,30.17,2.5,SSW,5.8,-,N/A,,Haze,210,2012-11-09 13:14:00
8:35 AM,37.8,32.7,82,30.17,2.5,SSW,4.6,-,N/A,,Haze,210,2012-11-09 13:35:00
8:55 AM,38.8,33.1,80,30.17,3.0,SSW,5.8,-,N/A,,Haze,210,2012-11-09 13:55:00
9:14 AM,40.1,33.8,78,30.17,3.0,SSW,5.8,-,N/A,,Haze,200,2012-11-09 14:14:00
9:35 AM,41.7,34.0,74,30.17,4.0,South,6.9,-,N/A,,Haze,190,2012-11-09 14:35:00
9:55 AM,43.7,34.7,71,30.17,4.0,SSW,6.9,-,N/A,,Haze,200,2012-11-09 14:55:00
10:14 AM,44.8,35.1,69,30.17,5.0,South,8.1,-,N/A,,Haze,190,2012-11-09 15:14:00
10:35 AM,46.2,35.6,66,30.16,5.0,SSW,6.9,-,N/A,,Haze,200,2012-11-09 15:35:00
10:54 AM,47.5,35.1,62,30.16,7.0,South,8.1,-,N/A,,Clear,190,2012-11-09 15:54:00
11:15 AM,48.2,34.5,59,30.15,7.0,SW,8.1,-,N/A,,Clear,220,2012-11-09 16:15:00
11:35 AM,49.5,34.7,57,30.15,7.0,South,5.8,-,N/A,,Clear,170,2012-11-09 16:35:00
11:54 AM,50.4,34.9,55,30.15,7.0,South,5.8,-,N/A,,Clear,170,2012-11-09 16:54:00
12:15 PM,51.1,34.9,54,30.14,7.0,South,6.9,-,N/A,,Clear,190,2012-11-09 17:15:00
12:34 PM,51.8,35.2,53,30.13,7.0,South,6.9,-,N/A,,Clear,170,2012-11-09 17:34:00
12:54 PM,52.9,35.2,51,30.11,7.0,South,6.9,-,N/A,,Clear,180,2012-11-09 17:54:00
1:15 PM,53.6,34.9,49,30.10,7.0,SSE,5.8,-,N/A,,Clear,160,2012-11-09 18:15:00
1:34 PM,54.1,34.9,48,30.10,10.0,SSW,6.9,-,N/A,,Clear,210,2012-11-09 18:34:00
1:54 PM,54.5,35.1,48,30.09,7.0,SSE,6.9,-,N/A,,Clear,160,2012-11-09 18:54:00
2:14 PM,55.0,34.9,47,30.08,7.0,South,10.4,-,N/A,,Clear,170,2012-11-09 19:14:00
2:34 PM,54.7,34.5,47,30.08,7.0,South,11.5,16.1,N/A,,Clear,170,2012-11-09 19:34:00
2:55 PM,55.4,34.3,45,30.08,10.0,South,9.2,-,N/A,,Clear,170,2012-11-09 19:55:00
3:14 PM,54.9,34.5,46,30.08,7.0,SSE,10.4,-,N/A,,Clear,150,2012-11-09 20:14:00
3:34 PM,53.6,34.2,48,30.08,7.0,South,10.4,-,N/A,,Scattered Clouds,170,2012-11-09 20:34:00
3:55 PM,54.0,34.3,47,30.08,7.0,South,9.2,-,N/A,,Mostly Cloudy,170,2012-11-09 20:55:00
4:14 PM,53.6,34.7,49,30.08,7.0,South,4.6,-,N/A,,Mostly Cloudy,190,2012-11-09 21:14:00
4:35 PM,53.6,34.2,48,30.08,7.0,SSE,6.9,-,N/A,,Overcast,160,2012-11-09 21:35:00
4:54 PM,52.9,35.1,51,30.07,10.0,SSE,5.8,-,N/A,,Overcast,150,2012-11-09 21:54:00
5:14 PM,52.5,35.2,52,30.08,10.0,SSE,4.6,-,N/A,,Overcast,150,2012-11-09 22:14:00
5:35 PM,51.8,35.8,54,30.08,10.0,SSE,4.6,-,N/A,,Overcast,150,2012-11-09 22:35:00
5:54 PM,51.8,35.8,54,30.07,10.0,SE,3.5,-,N/A,,Overcast,140,2012-11-09 22:54:00
6:15 PM,51.1,35.8,56,30.08,10.0,SE,4.6,-,N/A,,Overcast,130,2012-11-09 23:15:00
6:35 PM,50.9,36.3,57,30.08,10.0,ESE,4.6,-,N/A,,Overcast,120,2012-11-09 23:35:00
6:54 PM,50.9,36.3,57,30.08,10.0,SE,5.8,-,N/A,,Overcast,140,2012-11-09 23:54:00
7:15 PM,51.3,36.5,57,30.08,10.0,SSE,3.5,-,N/A,,Overcast,160,2012-11-10 00:15:00
7:35 PM,50.7,36.9,59,30.08,10.0,SSE,3.5,-,N/A,,Overcast,150,2012-11-10 00:35:00
7:54 PM,50.4,37.4,61,30.08,10.0,SE,4.6,-,N/A,,Overcast,130,2012-11-10 00:54:00
8:15 PM,50.9,37.4,60,30.08,10.0,ESE,5.8,-,N/A,,Overcast,120,2012-11-10 01:15:00
8:34 PM,49.8,38.7,65,30.08,7.0,ESE,5.8,-,N/A,,Overcast,110,2012-11-10 01:34:00
8:54 PM,50.0,38.3,64,30.08,7.0,East,4.6,-,N/A,,Overcast,100,2012-11-10 01:54:00
9:15 PM,49.8,38.5,65,30.09,7.0,ESE,4.6,-,N/A,,Overcast,110,2012-11-10 02:15:00
9:34 PM,49.5,38.5,66,30.10,7.0,East,4.6,-,N/A,,Overcast,90,2012-11-10 02:34:00
9:55 PM,49.1,38.7,67,30.10,7.0,East,4.6,-,N/A,,Overcast,100,2012-11-10 02:55:00
10:14 PM,49.1,38.8,68,30.10,7.0,East,4.6,-,N/A,Rain,Light Rain,100,2012-11-10 03:14:00
10:35 PM,49.1,38.3,66,30.10,7.0,ESE,3.5,-,N/A,,Overcast,110,2012-11-10 03:35:00
10:55 PM,48.7,38.3,67,30.10,7.0,East,4.6,-,N/A,,Overcast,100,2012-11-10 03:55:00
11:14 PM,48.6,38.7,69,30.10,7.0,ESE,4.6,-,N/A,,Overcast,110,2012-11-10 04:14:00
11:35 PM,48.6,38.7,69,30.10,7.0,SE,5.8,-,N/A,,Overcast,140,2012-11-10 04:35:00
11:54 PM,48.2,39.2,71,30.10,7.0,SE,6.9,-,N/A,,Overcast,130,2012-11-10 04:54:00